Zurück zum Katalog

ARIANE 3 DEB

AktivGTO
NORAD 27026·DEBRIS·🇫🇷 France

Gestartet Sep 8, 1988 von Guiana Space Centre

Loading…

TLE

AktuellSource: Space-Track

Epoche: Sep 14, 2026, 22:21 UTC

1 27026U 88081J   26257.93153412  .00000276  00000-0  26094-2 0  9990
2 27026   7.4294 142.4605 7107336 352.3108 234.7365  2.36528490268528

Verfolge ARIANE 3 DEB in Echtzeit mit AllMySat

Download on the App Store